Regional Weather Roundup
Issued by NWS

Home | Current Version | Previous Version | Graphics & Text | Print | Product List | Glossary On
Versions: 1 2 3 4 5 6 7 8 9 10 11 12 13 14 15 16 17 18 19 20 21 22 23 24 25 26 27 28 29 30 31 32 33 34 35 36 37 38 39 40 41 42 43 44 45 46 47 48 49 50
000
ASUS43 KDTX 242310
RWRMI
MICHIGAN HOURLY REGIONAL WEATHER ROUNDUP
NATIONAL WEATHER SERVICE DETROIT/PONTIAC MI
700 PM EDT THU APR 24 2014

NOTE: "FAIR" INDICATES FEW OR NO CLOUDS BELOW 12,000 FEET WITH NO
SIGNIFICANT WEATHER AND/OR OBSTRUCTION TO VISIBILITY.

MIZ047>049-052>055-059>063-066>070-074>076-081>083-250000-
SOUTHEAST LOWER MICHIGAN

CITY           SKY/WX    TMP DP  RH WIND       PRES   REMARKS
ADRIAN         LGT RAIN  48  24  39 E20       29.95F
ALMA           CLOUDY    55  17  22 E12G23    29.93F
ANN ARBOR      CLOUDY    50  12  21 SE10      29.99F
BAD AXE        PTSUNNY   47  16  29 E8        30.03F
CARO           CLOUDY    53  20  27 E12       29.99F
DETROIT CITY   PTSUNNY   52  18  26 SE10      30.02F
DETROIT        CLOUDY    52  13  21 E9        30.02F
FLINT          CLOUDY    54  20  26 SE14G22   29.98F
GROSSE ILE     CLOUDY    52  16  24 SE7       30.00S
HILLSDALE      CLOUDY    51  22  32 E17G23    29.91F
HOWELL         CLOUDY    51  18  26 SE12      29.97F

CITY           SKY/WX    TMP DP  RH WIND       PRES   REMARKS
JACKSON        CLOUDY    48  19  31 E17G29    29.91F
LAMBERTVILLE   CLOUDY    48  27  43 E12G18    30.00F
LANSING        LGT RAIN  52  19  27 SE18G24   29.93F
LAPEER         CLOUDY    52  21  29 SE10      30.00F
MASON          CLOUDY    51  19  27 SE16G23   29.94F
MONROE         CLOUDY    48  25  40 E10G16    29.99F
MT. CLEMENS    PTSUNNY   50  22  33 S13       30.01F
PONTIAC        CLOUDY    52  17  25 SE13      29.99F
PORT HOPE        N/A     40  32  73 E8        30.04F WCI  34
PORT HURON     PTSUNNY   48  23  37 N5        30.03F
TRI CITIES     CLOUDY    55  22  27 SE15      29.97F
TROY           CLOUDY    51  16  24 SE7       30.02S
SAGINAW HB     CLOUDY    55  19  24 SE12      29.98F
YPSILANTI      CLOUDY    54  14  20 SE14      30.00F
$$
MIZ043>046-050>051-056>058-064>065-071>073-077>080-250000-
SOUTHWEST LOWER MICHIGAN

CITY           SKY/WX    TMP DP  RH WIND       PRES   REMARKS
BATTLE CREEK   CLOUDY    54  23  30 SE18G25   29.88F
BENTON HARBOR  PTSUNNY   56  25  30 SE21G33   29.78F
BIG RAPIDS     CLOUDY    54  21  28 SE18G30   29.87F
COLDWATER      CLOUDY    53  20  28 SE17      29.89S
FREMONT        FAIR      56  19  24 SE17G26   29.85S
HOLLAND        PTSUNNY   58  24  27 SE16G25   29.82F
GRAND RAPIDS   PTSUNNY   55  25  31 E26G36    29.86F
IONIA          CLOUDY    52  20  27 SE18G30   29.89F
KALAMAZOO      CLOUDY    55  23  28 SE15G24   29.87F
LUDINGTON      PTSUNNY   57  21  24 SE12G20   29.84F
MARSHALL       CLOUDY    50  22  32 E14G21    29.89S
MOUNT PLEASANT CLOUDY    53  26  35 E14       29.93F
MUSKEGON       PTSUNNY   58  21  24 E16G25    29.83S
SOUTH HAVEN    PTSUNNY   58  19  22 SE14G28   29.79F
$$
MIZ016>042-250000-
NORTHERN LOWER MICHIGAN

CITY           SKY/WX    TMP DP  RH WIND       PRES   REMARKS
ALPENA         CLOUDY    43  24  47 SE9       30.05F
BEAVER ISLAND  LGT RAIN  45  29  53 E6        29.98S
BELLAIRE       CLOUDY    51  23  33 E9        29.95F
CADILLAC       CLOUDY    50  24  35 E21       29.90F
CHARLEVOIX     LGT RAIN  49  31  49 SE8G20    30.00R
FRANKFORT      CLOUDY    46  34  62 E9        29.86F
GAYLORD        CLOUDY    47  15  27 SE15      29.97R
GRAYLING       CLOUDY    48  17  28 E16       29.97F
HARBOR SPRINGS CLOUDY    50  20  30 E10G17    29.97S
HOUGHTON LAKE  CLOUDY    49  21  33 SE15      29.95F
MANISTEE       CLOUDY    54  21  28 SE17G24   29.86F
OSCODA         CLOUDY    42  26  53 E6        30.04F
PELLSTON       CLOUDY    49  18  29 E13G21    29.99S
ROGERS CITY    CLOUDY    47  22  37 SE10      30.05S
TRAVERSE CITY  CLOUDY    49  31  49 E8        29.91F
$$
MIZ007>008-015-250000-
EASTERN UPPER MICHIGAN

CITY           SKY/WX    TMP DP  RH WIND       PRES   REMARKS
KINROSS        CLOUDY    46  19  34 E7        30.02S
MACKINAC ISLAN CLOUDY    45  21  39 SE10G17   30.01F
NEWBERRY       CLOUDY    42  28  57 E16       30.00S
S. S. MARIE    CLOUDY    46  19  34 SE10      30.02F
MUNISING         N/A     43  32  65 S8G18     29.97R
$$
MIZ004>006-011>014-085-250000-
CENTRAL UPPER MICHIGAN

CITY           SKY/WX    TMP DP  RH WIND       PRES   REMARKS
MANISTIQUE     RAIN      41  29  63 SE10G20   29.97S
ESCANABA       CLOUDY    37  34  87 E14       29.93F WCI  29
MENOMINEE      CLOUDY    37  36  93 E15       29.84F WCI  28
SAWYER-GWINN   RAIN      36  34  93 S8        29.94F WCI  29
$$
MIZ001>003-009>011-084-250000-
WESTERN UPPER MICHIGAN

CITY           SKY/WX    TMP DP  RH WIND       PRES   REMARKS
IRON MOUNTAIN  CLOUDY    34  32  92 E9        29.85F WCI  27
HOUGHTON       LGT SNOW  33  31  92 E17G23    29.91F VSB 3/4 WCI  22
COPPER HARBOR    N/A     37  33  85 S12G18    29.96F WCI  29
$$

ABBREVIATIONS USED IN REMARKS
   TC - TEMPERATURE IN CELSIUS
  WCI - WIND CHILL INDEX
   HX - HEAT INDEX
  VSB - VISIBILITY




USA.gov is the U.S. government's official web portal to all federal, state and local government web resources and services.